Location: Burland Observatory
(39.4088°N, 105.4217°W)
Time: 11:06:57
(UTC-07:00)

Explorer 7 - All Passes

Search period start: 14 December 2019 00:00
Search period end: 24 December 2019 00:00
Orbit: 485 x 680 km, 50.3° (Epoch: 13 December)

Date Brightness Start Highest point End Pass type
(mag) Time Alt. Az. Time Alt. Az. Time Alt. Az.
14 Dec - 12:52:22 10° S 12:56:12 26° SE 13:00:11 10° ENE daylight
14 Dec - 14:31:50 10° WSW 14:36:32 63° NNW 14:41:24 10° NE daylight
14 Dec - 16:13:51 10° WNW 16:17:54 25° NNW 16:22:00 10° NE daylight
14 Dec - 17:55:46 10° NW 17:59:45 24° N 18:03:43 10° ENE visible
14 Dec - 19:36:27 10° NW 19:41:15 52° NNE 19:45:53 10° ESE visible
14 Dec - 21:17:24 10° WNW 21:21:45 34° SW 21:25:55 10° SSE night (unlit)
15 Dec - 12:56:38 10° SSW 13:00:58 41° SE 13:05:30 10° ENE daylight
15 Dec - 14:37:03 10° W 14:41:36 45° NNW 14:46:18 10° NE daylight
15 Dec - 16:19:17 10° WNW 16:23:10 23° N 16:27:05 10° NE daylight
15 Dec - 18:00:48 10° NW 18:05:00 27° NNE 18:09:09 10° ENE visible
15 Dec - 19:41:22 10° NW 19:46:16 75° NE 19:51:01 10° ESE visible
15 Dec - 21:22:52 10° W 21:26:28 21° SW 21:29:57 10° S night (unlit)
16 Dec - 11:25:11 10° SE 11:26:01 10° SE 11:26:51 10° ESE daylight
16 Dec - 13:01:14 10° SW 13:05:48 66° SE 13:10:36 10° ENE daylight
16 Dec - 14:42:23 10° W 14:46:44 34° NNW 14:51:12 10° NE daylight
16 Dec - 16:24:38 10° NW 16:28:27 22° N 16:32:18 10° NE daylight
16 Dec - 18:05:46 10° NW 18:10:12 33° NNE 18:14:35 10° E visible
16 Dec - 19:46:19 10° WNW 19:51:13 74° SW 19:55:56 10° SE visible
16 Dec - 21:29:04 10° W 21:31:06 13° SW 21:33:07 10° SSW night (unlit)
17 Dec - 11:27:34 10° S 11:30:39 18° SE 11:33:49 10° E daylight
17 Dec - 13:06:06 10° WSW 13:10:44 81° NNW 13:15:35 10° NE daylight
17 Dec - 14:47:48 10° WNW 14:51:56 28° NNW 14:56:09 10° NE daylight
17 Dec - 16:29:53 10° NW 16:33:45 23° N 16:37:38 10° ENE daylight
17 Dec - 18:10:40 10° NW 18:15:21 42° NNE 18:19:57 10° E visible
17 Dec - 19:51:23 10° WNW 19:56:05 47° SW 20:00:37 10° SSE visible
18 Dec - 11:31:27 10° SSW 11:35:20 29° SE 11:39:25 10° ENE daylight
18 Dec - 13:11:12 10° WSW 13:15:44 56° NNW 13:20:31 10° NE daylight
18 Dec - 14:53:16 10° WNW 14:57:10 24° N 15:01:10 10° NE daylight
18 Dec - 16:35:00 10° NW 16:39:01 25° N 16:43:04 10° ENE daylight
18 Dec - 18:15:34 10° NW 18:20:26 58° NNE 18:25:12 10° ESE visible
18 Dec - 19:56:38 10° WNW 20:00:51 30° SW 20:04:58 10° SSE visible
19 Dec - 11:35:49 10° SSW 11:40:07 47° SE 11:44:40 10° ENE daylight
19 Dec - 13:16:27 10° W 13:20:50 40° NNW 13:25:24 10° NE daylight
19 Dec - 14:58:39 10° NW 15:02:27 22° N 15:06:18 10° NE daylight
19 Dec - 16:40:00 10° NW 16:44:15 29° NNE 16:48:30 10° ENE daylight
19 Dec - 18:20:29 10° NW 18:25:26 84° NE 18:30:16 10° SE visible
19 Dec - 20:02:14 10° W 20:05:34 18° SW 20:08:50 10° S visible
20 Dec - 10:03:25 10° SSE 10:05:08 12° SE 10:06:52 10° ESE daylight
20 Dec - 11:40:30 10° SW 11:44:58 76° SE 11:49:44 10° ENE daylight
20 Dec - 13:21:49 10° W 13:25:59 31° NNW 13:30:19 10° NE daylight
20 Dec - 15:03:58 10° NW 15:07:44 22° N 15:11:33 10° NE daylight
20 Dec - 16:44:56 10° NW 16:49:26 35° NNE 16:53:56 10° E daylight
20 Dec - 18:25:29 10° WNW 18:30:21 65° SW 18:35:07 10° SE visible
20 Dec - 20:09:02 10° WSW 20:10:12 11° SW 20:11:22 10° SW visible
21 Dec - 10:06:32 10° S 10:09:46 20° SE 10:13:09 10° E daylight
21 Dec - 11:45:27 10° WSW 11:49:55 72° NNW 11:54:41 10° NE daylight
21 Dec - 13:27:15 10° WNW 13:31:11 26° NNW 13:35:16 10° NE daylight
21 Dec - 15:09:09 10° NW 15:13:00 23° N 15:16:55 10° ENE daylight
21 Dec - 16:49:49 10° NW 16:54:33 46° NNE 16:59:15 10° E daylight
21 Dec - 18:30:35 10° WNW 18:35:11 41° SW 18:39:42 10° SSE visible
22 Dec - 10:10:34 10° SSW 10:14:29 33° SE 10:18:38 10° ENE daylight
22 Dec - 11:50:35 10° WSW 11:54:57 49° NNW 11:59:35 10° NE daylight
22 Dec - 13:32:41 10° WNW 13:36:26 23° N 13:40:19 10° NE daylight
22 Dec - 15:14:13 10° NW 15:18:16 26° NNE 15:22:22 10° ENE daylight
22 Dec - 16:54:43 10° NW 16:59:36 65° NNE 17:04:27 10° ESE daylight
22 Dec - 18:35:54 10° WNW 18:39:57 26° SW 18:43:56 10° S visible
23 Dec - 10:15:03 10° SW 10:19:17 54° SE 10:23:48 10° ENE daylight
23 Dec - 11:55:53 10° W 12:00:04 36° NNW 12:04:29 10° NE daylight
23 Dec - 13:38:03 10° NW 13:41:43 22° N 13:45:29 10° NE daylight
23 Dec - 15:19:11 10° NW 15:23:28 30° NNE 15:27:49 10° E daylight
23 Dec - 16:59:39 10° NW 17:04:34 86° SW 17:09:27 10° SE daylight
23 Dec - 18:41:40 10° W 18:44:39 16° SW 18:47:34 10° SSW visible
